Location: Allentsteig
(48.6833°N, 15.3167°E)
Time: 15:57:01
(UTC+00:00)

Cosmos 2298 Rocket - Visible Passes

Search period start: 16 January 2021 00:00
Search period end: 26 January 2021 00:00
Orbit: 775 x 784 km, 74.0° (Epoch: 16 January)

Date Brightness Start Highest point End Pass type
(mag) Time Alt. Az. Time Alt. Az. Time Alt. Az.
16 Jan 6.5 04:19:10 10° N 04:22:28 16° NE 04:25:44 10° E visible
16 Jan 4.3 06:00:22 10° NNW 06:05:44 77° ENE 06:11:05 10° SSE visible
17 Jan 6.7 03:46:29 10° NNE 03:48:29 12° NE 03:50:28 10° ENE visible
17 Jan 4.8 05:26:54 10° NNW 05:32:08 52° ENE 05:37:20 10° SE visible
18 Jan 5.4 04:53:31 10° N 04:58:27 36° ENE 05:03:22 10° SE visible
19 Jan 6.0 04:20:13 10° N 04:24:42 26° NE 04:29:09 10° ESE visible
19 Jan 4.2 06:02:09 10° NNW 06:07:24 58° WSW 06:12:37 10° S visible
20 Jan 6.4 03:47:03 10° N 03:50:51 19° NE 03:54:37 10° E visible
20 Jan 4.0 05:28:32 10° NNW 05:33:55 86° WSW 05:39:15 10° SSE visible
21 Jan 6.7 03:14:06 10° N 03:16:55 14° NE 03:19:44 10° ENE visible
21 Jan 4.4 04:55:01 10° NNW 05:00:22 65° ENE 05:05:39 10° SSE visible
22 Jan 6.9 02:41:55 10° NNE 02:42:54 10° NE 02:43:53 10° NE visible
22 Jan 5.1 04:21:37 10° NNW 04:26:44 45° ENE 04:31:49 10° SE visible
22 Jan 4.9 06:04:15 10° NW 06:08:52 30° W 06:13:27 10° SSW visible
23 Jan 5.7 03:48:59 13° N 03:53:01 31° NE 03:57:45 10° ESE visible
23 Jan 4.4 05:30:25 10° NNW 05:35:30 45° WSW 05:40:33 10° S visible
24 Jan 6.1 03:16:26 16° N 03:19:13 23° NE 03:23:24 10° ESE visible
24 Jan 4.0 04:56:58 11° NNW 05:02:04 69° WSW 05:07:21 10° S visible
25 Jan 6.5 02:43:59 16° NNE 02:45:20 17° NE 02:48:44 10° E visible
25 Jan 4.1 04:24:31 18° NNW 04:28:34 81° ENE 04:33:53 10° SSE visible
25 Jan 6.0 17:26:30 10° SE 17:27:05 12° SE 17:27:05 12° SE visible
25 Jan 6.1 19:06:21 10° SSW 19:07:42 18° SSW 19:07:42 18° SSW visible
